Home > Time Zones > World Clock > Weather > Oman > Seeb > Past weeks

Flag for Oman Weather past 2 weeks in Seeb, Oman

Now
88 °F

Clear.


Feels Like: 116 °F
Forecast: 89 / 97 °F
Wind: 6 mph from Northeast

Location: International Airport

Current Time: Jul 29, 2014 at 7:26:59 AM

Latest Report: Jul 29, 2014 at 6:50 AM


Visibility: 4 mi

Pressure: 29.42 "Hg

Humidity: 94%

Dew point: 86 °F

Location of SeebLocation

Historic Weather in Seeb — Graph

°F

Seeb temperature yesterday

Maximum temperature yesterday: 95 °F (at 11:50 AM)
Minimum temperature yesterday: 84 °F (at 5:50 AM)
Average temperature yesterday: 91 °F

Past Weeks' High & Low Weather Summary

 TemperatureHumidityPressure
High108 °F (Jul 16, 9:50 AM)100% (Jul 22, 4:50 AM)29.65 "Hg (Jul 22, 4:50 AM)
Low82 °F (Jul 15, 2:50 AM)17% (Jul 25, 1:50 AM)29.33 "Hg (Jul 17, 1:50 AM)
Average91 °F72%29.44 "Hg
* Reported Jul 14 5:50 AM — Jul 29 5:50 AM, Seeb, Weather by CustomWeather, © 2014

Note: Actual official high and low records may vary slightly from our data, if they occured in-between our weather recording intervals... More about our weather records

Advertising

Seeb weather history for previous 24 hours

 ConditionsComfort  
Time TempWeatherWind HumidityBarometerVisibility
5:50 AM
Jul 29
88 °FClear.2 mph94%29.39 "Hg4 mi
4:50 AM88 °FClear.2 mph94%29.39 "Hg4 mi
3:50 AM88 °FClear.3 mph94%29.39 "Hg4 mi
2:50 AM88 °FClear.5 mph89%29.36 "Hg4 mi
1:50 AM90 °FClear.2 mph79%29.36 "Hg4 mi
12:50 AM91 °FClear.No wind75%29.36 "Hg4 mi
11:50 PM
Jul 28
91 °FClear.1 mph75%29.39 "Hg4 mi
10:50 PM91 °FClear.2 mph75%29.39 "Hg4 mi
9:50 PM93 °FClear.6 mph67%29.39 "Hg4 mi
8:50 PM90 °FClear.5 mph75%29.42 "Hg4 mi
7:50 PM91 °FClear.2 mph71%29.39 "Hg4 mi
6:50 PM91 °FClear.5 mph71%29.39 "Hg4 mi
5:50 PM91 °FClear.8 mph75%29.39 "Hg4 mi
4:50 PM93 °FClear.10 mph67%29.39 "Hg4 mi
3:50 PM93 °FClear.14 mph67%29.39 "Hg4 mi
2:50 PM95 °FClear.12 mph63%29.42 "Hg4 mi
1:50 PM93 °FClear.13 mph71%29.45 "Hg4 mi
12:50 PM95 °FClear.9 mph60%29.45 "Hg4 mi
11:50 AM95 °FClear.9 mph67%29.47 "Hg4 mi
10:50 AM91 °FClear.8 mph71%29.50 "Hg4 mi
9:50 AM91 °FClear.9 mph75%29.50 "Hg4 mi
8:50 AM91 °FClear.5 mph75%29.53 "Hg4 mi
7:50 AM90 °FClear.5 mph79%29.53 "Hg4 mi
Weather by CustomWeather, © 2014

See weather overviewHow to use our weather pages